Погода в Лопбури

Таиланд     14°47′39″N   100°38′14″E
темп.,
°C
ветер,
м/с
пор.,
м/с
влажн.,
%
обл.,
%
осадки,
мм/ч
давл.,
гПа
погр.,
м
16 мая, пн
пн1601:00+28ююв497797 0.2 1007312
04:00+27ю398247 0.0 1006336
07:00+28ю477983 0.0 1008379
10:00+33ююз4450100 0.0 10091044
13:00+37юз4537100 0.0 10062205
16:00+36зюз343798 0.0 10032214
19:00+32юз355193 0.0 1005139
22:00+28юв4872100 1.5 1008304
17 мая, вт
вт1701:00+26вюв2383100 2.3 1008144
04:00+25вюв129090 4.3 1007144
07:00+25всв348785 8.1 1009236
10:00+30в336230 0.3 10091003
13:00+32в3359100 5.0 10081305
16:00+31юв336289 3.6 1006968
19:00+28вюв237546 6.5 100763
22:00+27ююв3879100 1.9 1009294
18 мая, ср
ср1801:00+26ююв3685100 9.4 1009162
04:00+25юв2287100 1.1 100764
07:00+27в1280100 1.3 1009145
10:00+30юв2365100 3.3 1010710
13:00+29ююв4470100 6.8 1008706
16:00+26в2283100 1.4 100779
19:00+26ююв2589100 6.6 1009239
22:00+26ююв2690100 0.2 1011306
19 мая, чт
чт1901:00+25ююв2690100 0.2 1009257
04:00+25юв259184 0.0 1008210
07:00+26ююв2487100 0.0 1010239
10:00+31ю4561100 0.1 10101111
13:00+32ююз6756100 0.6 10081663
16:00+32ююз6855100 1.0 10061729
19:00+25ю51089100 4.1 1008364
22:00+25ююв2686100 0.1 1009325
20 мая, пт
пт2001:00+25ююв3886100 0.1 1008365
04:00+25ю268799 0.0 1008327
07:00+26ююв3687100 0.0 1009321
10:00+28ю5875100 0.0 1009819
13:00+29ююз7973100 1.4 1007952
16:00+27ю61082100 0.4 1005673
19:00+26ю51183100 0.4 1006620
22:00+26ю51182100 0.0 1008635